[[{"header":{"parameterUnit":"m.s-1","parameterCategory":1,"la1":30.2991,"la2":30.254,"lo1":-89.0895,"lo2":-89.0444,"dy":0.0017,"dx":0.0017,"nx":28,"ny":28,"refTime":"2024-05-26T03:00:00:Z","depth":0,"parameterNumber":2,"parameterNumberName":"U-component_of_WINDS"},"data":[0,0,0,0,0,0,0,0,0,0,0,0,0,0,0,0,0,0,0,0,0,0,0,0,0,0,0,0,0,0,0,0,0,0,0,0,0,0,0,0,0,0,0,0,0,0,0,0,0,0,0,0,0,0,0,0,0,0,1.2956,1.2956,0,1.2979,1.2979,1.2979,1.2973,1.2973,1.2972,1.2972,1.2995,1.2996,1.2997,0,0,0,0,0,0,0,0,0,0,0,0,0,1.2905,1.2906,1.2956,1.2956,1.2956,1.2979,1.2979,1.2979,1.2973,1.2973,1.2972,1.2972,1.2995,1.2996,1.2997,0,0,0,0,0,0,0,0,0,0,0,0,0,1.2927,1.2906,1.2956,1.2956,1.2956,1.2978,1.2979,1.2979,1.2974,1.2973,1.2972,1.2972,1.2994,1.2996,1.2997,1.302,0,0,1.3002,1.3003,0,0,0,0,0,0,0,0,1.2926,1.2929,1.2956,1.2956,1.2957,1.2972,1.2969,1.2993,1.2974,1.2967,1.2972,1.2971,1.2988,1.299,1.2996,1.3021,1.3022,1.3002,1.3003,1.3004,1.3004,0,0,0,0,0,0,0,1.2925,1.2928,1.2965,1.2956,1.2957,1.2954,1.2957,1.2974,1.2981,1.2968,1.2967,1.297,1.2988,1.2994,1.2996,1.3022,1.3002,1.3003,1.3004,1.3005,1.3065,1.3065,0,0,0,0,0,0,1.2923,1.2927,1.2964,1.2965,1.2939,1.2956,1.2959,1.2968,1.2981,1.2982,1.2971,1.297,1.2992,1.2994,1.2997,1.3022,1.3004,1.3005,1.3006,1.3064,1.3065,1.3065,0,0,0,0,0,0,1.2922,1.2926,1.2963,1.2946,1.2951,1.2958,1.2968,1.2969,1.2975,1.2983,1.2984,1.2976,1.2991,1.2995,1.3014,1.3023,1.3006,1.3007,1.3063,1.3064,1.3065,1.3075,0,0,0,0,0,0,1.2921,1.2926,1.2936,1.2946,1.2952,1.298,1.2969,1.297,1.2978,1.2977,1.2988,1.2989,1.2991,1.3011,1.3015,1.3025,1.3008,1.3062,1.3064,1.3065,1.3074,1.3076,1.3078,0,0,0,0,0,1.2919,1.2938,1.2936,1.2941,1.2964,1.2981,1.2984,1.2986,1.2979,1.2987,1.2992,1.2989,1.3022,1.3013,1.3018,1.3028,1.3062,1.3063,1.3065,1.3073,1.3076,1.3078,0,0,0,0,0,0,1.2929,1.2939,1.2937,1.2961,1.297,1.298,1.2991,1.2989,1.3,1.2999,1.3,1.3003,1.3022,1.3027,1.3018,1.3049,1.3041,1.3043,1.3045,1.3048,1.305,1.3048,1.301,0,0,0,0,0,1.2933,1.2947,1.2956,1.2975,1.298,1.2985,1.2992,1.2993,1.3002,1.3006,1.3012,1.3021,1.3033,1.3041,1.3053,1.3075,1.3076,1.3084,1.3086,1.3088,1.309,1.3099,1.3102,1.307,1.307,1.307,0,0,1.2944,1.2951,1.296,1.2977,1.2984,1.2997,1.2988,1.3003,1.3012,1.3008,1.3026,1.3031,1.304,1.306,1.3069,1.3065,1.3098,1.309,1.3091,1.3092,1.3101,1.3104,1.3107,1.3071,1.3071,1.3071,0,0,1.2968,1.2976,1.2992,1.2999,1.301,1.3012,1.3016,1.3026,1.3029,1.3047,1.3043,1.3054,1.3075,1.3082,1.3088,1.3112,1.3109,1.3116,1.3127,1.3137,1.3139,1.3141,1.3148,1.3151,1.3118,1.3118,1.3118,0,1.298,1.3,1.3001,1.3015,1.3022,1.3019,1.3034,1.3041,1.3054,1.3059,1.3054,1.3079,1.3085,1.3105,1.3111,1.3117,1.312,1.3115,1.3139,1.3141,1.3143,1.315,1.3152,1.3119,1.3119,1.3119,1.3118,0,1.3012,1.3025,1.3037,1.3049,1.3058,1.3073,1.3075,1.3083,1.3082,1.3085,1.3102,1.311,1.3122,1.3127,1.3127,1.3146,1.3143,1.3138,1.3129,1.3147,1.3153,1.3155,1.312,1.3119,1.3119,1.3119,0,0,1.3044,1.3056,1.306,1.3064,1.3074,1.3085,1.3098,1.311,1.3116,1.3125,1.3135,1.3152,1.3147,1.3154,1.3155,1.3163,1.3179,1.3157,1.3157,1.316,1.3199,1.3201,1.3205,1.3178,1.3178,1.3178,1.3198,0,1.3069,1.3093,1.3093,1.3115,1.3126,1.3122,1.3134,1.3141,1.3143,1.3153,1.3156,1.3167,1.3161,1.3164,1.3173,1.3176,1.3187,1.3175,1.3186,1.3187,1.3183,1.3208,1.3211,1.3229,1.32,1.3201,1.3201,0,1.3101,1.3109,1.3132,1.3138,1.3143,1.3154,1.3163,1.3172,1.3179,1.318,1.3187,1.3185,1.3198,1.3189,1.3205,1.3197,1.3201,1.3203,1.3204,1.3205,1.3194,1.3208,1.3235,1.3237,1.3205,1.3205,1.3205,0,1.3119,1.3137,1.3152,1.3157,1.3165,1.3172,1.3176,1.3182,1.3188,1.3196,1.3199,1.3209,1.3214,1.3221,1.3221,1.3215,1.3237,1.3229,1.3238,1.3238,1.3242,1.3242,1.3269,1.3247,1.3247,1.3247,1.3247,0,1.3146,1.3159,1.3161,1.317,1.3184,1.3184,1.3198,1.3201,1.3207,1.3216,1.3213,1.3221,1.3222,1.323,1.3231,1.3243,1.3246,1.3247,1.3246,1.3246,1.3246,1.3249,1.3247,1.3248,1.3248,1.3247,1.3247,0,1.3169,1.3171,1.3187,1.3193,1.3194,1.3204,1.3209,1.3217,1.3219,1.323,1.3233,1.3235,1.3245,1.3246,1.3258,1.3258,1.3272,1.3272,1.327,1.3269,1.3277,1.3276,1.3307,1.331,1.3287,1.3287,1.3287,0,1.3185,1.3195,1.3202,1.3207,1.3211,1.322,1.3226,1.3226,1.3232,1.3239,1.3246,1.3255,1.3262,1.3277,1.328,1.3288,1.3287,1.3297,1.3288,1.3287,1.3285,1.3284,1.3284,1.3298,1.3298,1.3299,1.3299,0,1.3213,1.3213,1.3221,1.3229,1.3235,1.3242,1.3248,1.3252,1.3253,1.3259,1.3269,1.3274,1.3285,1.3293,1.3301,1.3304,1.3301,1.3302,1.3304,1.3303,1.3301,1.3301,1.3273,1.3301,1.3301,1.33,1.33,1.33,1.3232,1.324,1.3245,1.3253,1.3258,1.3263,1.327,1.3272,1.328,1.3288,1.3288,1.3297,1.3302,1.3312,1.3316,1.3323,1.3319,1.3323,1.3324,1.3324,1.3324,1.3301,1.3324,1.3324,1.3324,1.3324,1.3324,0,1.3258,1.326,1.3268,1.3276,1.3282,1.3279,1.3285,1.329,1.3299,1.3303,1.331,1.332,1.3327,1.333,1.3337,1.3342,1.3341,1.3344,1.3343,1.3344,1.3328,1.3324,1.3345,1.3345,1.3345,1.3345,1.3345,1.3345,1.3272,1.3284,1.3284,1.3298,1.3301,1.331,1.3313,1.3317,1.3321,1.3331,1.3338,1.3339,1.3343,1.335,1.3356,1.3357,1.3359,1.3363,1.3362,1.3347,1.3345,1.3343,1.334,1.3363,1.3363,1.3378,1.3378,1.3378]},{"header":{"parameterUnit":"m.s-1","parameterCategory":1,"la1":30.2991,"la2":30.254,"lo1":-89.0895,"lo2":-89.0444,"dy":0.0017,"dx":0.0017,"nx":28,"ny":28,"refTime":"2024-05-26T03:00:00:Z","depth":0,"parameterNumber":3,"parameterNumberName":"V-component_of_WINDS"},"data":[0,0,0,0,0,0,0,0,0,0,0,0,0,0,0,0,0,0,0,0,0,0,0,0,0,0,0,0,0,0,0,0,0,0,0,0,0,0,0,0,0,0,0,0,0,0,0,0,0,0,0,0,0,0,0,0,0,0,5.5308,5.5309,0,5.5388,5.5389,5.539,5.533,5.5328,5.5325,5.5323,5.5399,5.5403,5.5407,0,0,0,0,0,0,0,0,0,0,0,0,0,5.5096,5.5101,5.5308,5.5309,5.531,5.5388,5.5389,5.539,5.5331,5.5328,5.5325,5.5322,5.5397,5.5402,5.5408,0,0,0,0,0,0,0,0,0,0,0,0,0,5.5183,5.5102,5.5308,5.529,5.5289,5.5388,5.5389,5.539,5.5332,5.5328,5.5324,5.532,5.5395,5.5402,5.5408,5.5527,0,0,5.5429,5.5431,0,0,0,0,0,0,0,0,5.5179,5.5191,5.5292,5.5291,5.5291,5.5345,5.5342,5.5436,5.5332,5.5315,5.5323,5.5318,5.5384,5.5391,5.5414,5.553,5.5533,5.5429,5.5433,5.5436,5.5438,0,0,0,0,0,0,0,5.5173,5.5187,5.5339,5.5293,5.5293,5.5275,5.5284,5.5359,5.537,5.5316,5.5312,5.5323,5.5382,5.5408,5.5415,5.5534,5.5429,5.5435,5.5439,5.5442,5.5748,5.5752,0,0,0,0,0,0,5.5169,5.5183,5.5337,5.5342,5.5224,5.5282,5.5291,5.5332,5.5369,5.5371,5.5326,5.532,5.5399,5.5408,5.5418,5.5557,5.5436,5.5442,5.5446,5.5744,5.5749,5.5753,0,0,0,0,0,0,5.5165,5.5184,5.5334,5.5261,5.5279,5.529,5.5336,5.5335,5.5361,5.5376,5.5377,5.5351,5.5396,5.5409,5.55,5.5559,5.5445,5.5451,5.5739,5.5745,5.5751,5.5837,0,0,0,0,0,0,5.5159,5.5182,5.5229,5.5263,5.5283,5.5417,5.5339,5.534,5.5373,5.5366,5.54,5.5402,5.5394,5.549,5.5506,5.5566,5.5456,5.5734,5.5742,5.5749,5.5829,5.5846,5.586,0,0,0,0,0,5.5152,5.525,5.5232,5.5251,5.5343,5.542,5.5432,5.5422,5.5378,5.5424,5.5434,5.54,5.555,5.55,5.5518,5.558,5.573,5.574,5.5749,5.5822,5.5842,5.5859,0,0,0,0,0,0,5.5221,5.5254,5.5235,5.5347,5.5381,5.541,5.5468,5.5444,5.5491,5.5482,5.5466,5.5474,5.557,5.5584,5.5528,5.5695,5.5632,5.5646,5.5682,5.5702,5.5717,5.5711,5.5462,0,0,0,0,0,5.525,5.5313,5.5337,5.5433,5.5451,5.5457,5.549,5.548,5.5515,5.5528,5.5545,5.5578,5.5631,5.5667,5.5718,5.5831,5.5836,5.5882,5.5898,5.591,5.5921,5.598,5.6,5.5784,5.5784,5.5784,0,0,5.5309,5.5334,5.5375,5.5448,5.5473,5.5536,5.547,5.5539,5.5584,5.5538,5.5625,5.5639,5.5674,5.5776,5.5821,5.579,5.5982,5.5922,5.5932,5.5936,5.5991,5.6012,5.603,5.5791,5.5789,5.5788,0,0,5.5448,5.5475,5.5558,5.5585,5.5625,5.5628,5.5647,5.568,5.5687,5.5775,5.5741,5.5793,5.5887,5.5913,5.5939,5.6086,5.6057,5.6103,5.6183,5.624,5.6257,5.6272,5.6322,5.6341,5.6115,5.6115,5.6115,0,5.5516,5.5612,5.5602,5.5675,5.5706,5.5669,5.575,5.5776,5.583,5.5852,5.5817,5.5933,5.5954,5.606,5.6096,5.6119,5.6139,5.6099,5.6255,5.627,5.6284,5.6332,5.6351,5.612,5.612,5.6119,5.6118,0,5.5692,5.5759,5.582,5.5875,5.5913,5.599,5.5989,5.6029,5.6015,5.602,5.6108,5.6132,5.6186,5.6211,5.6198,5.6315,5.6294,5.6258,5.6194,5.631,5.6355,5.6373,5.6128,5.6126,5.6124,5.6123,0,0,5.5878,5.5926,5.5949,5.5972,5.6013,5.6063,5.6136,5.619,5.6224,5.6261,5.6321,5.6401,5.6367,5.6396,5.6385,5.6435,5.6548,5.6392,5.6392,5.6418,5.6675,5.6702,5.6724,5.6529,5.6532,5.6535,5.6672,0,5.6019,5.6149,5.6142,5.6263,5.6322,5.6287,5.635,5.638,5.6387,5.6436,5.6442,5.6499,5.6451,5.6468,5.6516,5.6524,5.6599,5.6514,5.6581,5.6583,5.6572,5.6747,5.6776,5.6904,5.6689,5.6693,5.6695,0,5.62,5.6246,5.6373,5.6403,5.6428,5.6486,5.6534,5.6582,5.6615,5.6616,5.6648,5.6628,5.6699,5.6635,5.6731,5.6673,5.67,5.6708,5.6712,5.6717,5.6645,5.6755,5.6945,5.6964,5.6723,5.672,5.6718,0,5.6321,5.6414,5.6502,5.6523,5.6561,5.6602,5.6619,5.6648,5.668,5.6721,5.6742,5.679,5.6816,5.6853,5.6846,5.68,5.6943,5.6879,5.6944,5.6944,5.6975,5.6973,5.717,5.6994,5.6994,5.6994,5.6993,0,5.6478,5.6557,5.6556,5.661,5.6696,5.6686,5.6771,5.6783,5.6808,5.6862,5.6833,5.6884,5.6872,5.6921,5.6915,5.6994,5.7007,5.7008,5.7005,5.701,5.7009,5.7026,5.7016,5.6999,5.6998,5.6997,5.6996,0,5.6627,5.663,5.6723,5.6752,5.676,5.6822,5.6845,5.6894,5.6899,5.6966,5.6981,5.6987,5.7043,5.704,5.7103,5.7099,5.7196,5.7184,5.7186,5.7183,5.7247,5.7241,5.7461,5.7489,5.7297,5.7299,5.73,0,5.6726,5.6786,5.6821,5.6856,5.6876,5.6933,5.6966,5.6957,5.6992,5.7032,5.7076,5.713,5.7173,5.7264,5.7272,5.7319,5.7307,5.7381,5.7313,5.7316,5.7306,5.7302,5.7307,5.7393,5.7396,5.7397,5.7399,0,5.6902,5.69,5.695,5.7001,5.7042,5.7081,5.7116,5.7145,5.7139,5.718,5.7238,5.7271,5.7336,5.7389,5.7434,5.7448,5.7422,5.742,5.7437,5.7442,5.744,5.744,5.722,5.7415,5.7413,5.7412,5.7411,5.7411,5.7028,5.7079,5.7111,5.7167,5.7193,5.7227,5.7274,5.7284,5.7333,5.7386,5.7377,5.7441,5.747,5.7528,5.7547,5.7595,5.7568,5.7594,5.76,5.7606,5.7613,5.7434,5.7603,5.7603,5.7602,5.7602,5.7602,0,5.72,5.7219,5.7271,5.7322,5.7366,5.7339,5.7376,5.7414,5.7471,5.7501,5.7544,5.7609,5.766,5.7672,5.772,5.7756,5.7745,5.7769,5.7765,5.7768,5.7635,5.7614,5.7777,5.7777,5.7777,5.7777,5.7777,5.7776,5.7295,5.7379,5.7381,5.7477,5.7494,5.7559,5.7582,5.7611,5.7635,5.771,5.7752,5.776,5.7782,5.7831,5.7876,5.7878,5.7896,5.7924,5.7921,5.7796,5.7778,5.7761,5.7742,5.7929,5.7929,5.8051,5.8052,5.8053]}]]